FW9372 Weather Reports


Display with metric or nautical units.
time (UTC)temp
F
wind
direction
speed
MPH
gust
MPH
rain 1hr
in
rain 24hr
in
rain mn
in
humidity
%
barometer
mb
20260831120113 67 0 0.0 0.0 0.00 0.00 0.00 99 1017.1
20260831114609 67 0 0.0 0.0 0.00 0.00 0.00 99 1017.0
20260831113107 66 0 0.0 0.0 0.00 0.00 0.00 99 1016.9
20260831111607 67 0 0.0 0.0 0.00 0.00 0.00 99 1016.7
20260831110107 67 0 0.0 0.0 0.00 0.00 0.00 99 1016.7
20260831104604 67 0 0.0 0.0 0.00 0.00 0.00 99 1016.4
20260831103109 67 0 0.0 0.0 0.00 0.00 0.00 99 1016.5
20260831101605 67 0 0.0 0.0 0.00 0.00 0.00 99 1016.2
20260831100127 67 0 0.0 0.0 0.00 0.00 0.00 99 1016.1
20260831094607 67 0 0.0 0.0 0.00 0.00 0.00 99 1016.1
20260831093128 67 0 0.0 0.0 0.00 0.00 0.00 99 1016.1
20260831091609 67 0 0.0 0.0 0.00 0.00 0.00 99 1016.1
20260831090138 67 0 0.0 0.0 0.00 0.00 0.00 99 1016.3
20260831084604 67 0 0.0 0.0 0.00 0.00 0.00 99 1016.1
20260831083111 67 0 0.0 0.0 0.00 0.00 0.00 99 1016.0
20260831081610 67 0 0.0 0.0 0.00 0.00 0.00 98 1015.8
20260831080130 68 0 0.0 0.0 0.00 0.00 0.00 98 1015.6
20260831074608 68 0 0.0 0.0 0.00 0.00 0.00 99 1015.4
20260831073112 68 0 0.0 0.0 0.00 0.00 0.00 99 1015.6
20260831071605 68 0 0.0 0.0 0.00 0.00 0.00 98 1015.8
20260831070108 68 0 0.0 0.0 0.00 0.00 0.00 99 1015.9
20260831064605 68 0 0.0 0.0 0.00 0.00 0.00 98 1015.9
20260831063114 68 0 0.0 0.0 0.00 0.00 0.00 98 1016.1
20260831061605 69 0 0.0 0.0 0.00 0.00 0.00 98 1016.1
20260831060112 69 0 0.0 0.0 0.00 0.00 0.00 98 1016.0
20260831054611 69 0 0.0 0.0 0.00 0.00 0.00 98 1016.0
20260831053132 69 0 0.0 0.0 0.00 0.00 0.00 98 1016.0
20260831051604 69 0 0.0 0.0 0.00 0.00 0.00 98 1015.9
20260831050111 69 0 0.0 0.0 0.00 0.00 0.00 98 1016.0
20260831044645 69 0 0.0 0.0 0.00 0.00 0.00 98 1016.1
20260831043107 70 0 0.0 0.0 0.00 0.00 0.00 97 1016.1
20260831041614 70 0 0.0 0.0 0.00 0.00 0.00 98 1015.9
20260831040108 70 0 0.0 0.0 0.00 0.00 0.00 97 1016.0
20260831034609 70 0 0.0 0.0 0.00 0.00 0.00 97 1015.9
20260831033111 70 0 0.0 0.0 0.00 0.00 0.00 96 1016.0
20260831031608 71 0 0.0 0.0 0.00 0.00 0.00 96 1016.0
20260831030107 71 0 0.0 0.0 0.00 0.00 0.00 96 1016.0
20260831024611 71 0 0.0 0.0 0.00 0.00 0.00 95 1016.1
20260831023107 71 0 0.0 0.0 0.00 0.00 0.00 95 1015.8
20260831021606 71 0 0.0 0.0 0.00 0.00 0.00 94 1015.7
20260831020110 72 0 0.0 0.0 0.00 0.00 0.00 93 1015.7
20260831014607 72 0 0.0 0.0 0.00 0.00 0.00 93 1015.3
20260831013110 72 0 0.0 0.0 0.00 0.00 0.00 92 1015.2
20260831011608 73 0 0.0 0.0 0.00 0.00 0.00 91 1015.2
20260831010120 74 0 0.0 0.0 0.00 0.00 0.00 90 1015.2
20260831004619 74 0 0.0 0.0 0.00 0.00 0.00 90 1015.1
20260831003113 75 0 0.0 0.0 0.00 0.00 0.00 90 1015.0
20260831001607 76 0 0.0 0.0 0.00 0.00 0.00 89 1015.0
20260831000111 77 0 0.0 0.0 0.00 0.00 0.00 88 1015.0
20260830234631 78 0 0.0 0.0 0.00 0.00 0.00 88 1015.0
20260830233104 79 0 0.0 0.0 0.00 0.00 0.00 86 1015.0
20260830231613 81 0 0.0 0.0 0.00 0.00 0.00 84 1015.1
20260830230109 82 0 0.0 0.0 0.00 0.00 0.00 83 1015.1
20260830224604 84 0 0.0 0.0 0.00 0.00 0.00 80 1015.0
20260830223106 87 0 0.0 0.0 0.00 0.00 0.00 77 1014.9
20260830221608 88 0 0.0 0.0 0.00 0.00 0.00 74 1014.9
20260830220109 88 0 0.0 0.0 0.00 0.00 0.00 73 1015.0
20260830214607 93 0 0.0 0.0 0.00 0.00 0.00 65 1015.2
20260830213116 94 0 0.0 0.0 0.00 0.00 0.00 65 1015.2
20260830211609 92 0 0.0 0.0 0.00 0.00 0.00 62 1015.4
20260830210108 92 0 0.0 0.0 0.00 0.00 0.00 60 1015.5
20260830204607 92 0 0.0 1.0 0.00 0.00 0.00 56 1015.6
20260830203106 92 0 0.0 0.0 0.00 0.00 0.00 57 1015.6
20260830201609 91 0 0.0 1.0 0.00 0.00 0.00 56 1015.9
20260830200107 91 0 0.0 2.0 0.00 0.00 0.00 54 1016.0
20260830194607 91 0 0.0 2.0 0.00 0.00 0.00 56 1016.0
20260830193110 91 0 0.0 0.0 0.00 0.00 0.00 61 1016.2
20260830191607 90 0 0.0 0.0 0.00 0.00 0.00 63 1016.4
20260830190109 90 0 0.0 0.0 0.00 0.00 0.00 67 1016.6
20260830184604 91 0 0.0 0.0 0.00 0.00 0.00 64 1016.9
20260830183108 90 0 0.0 0.0 0.00 0.00 0.00 62 1017.0
20260830181609 90 0 0.0 5.0 0.00 0.00 0.00 61 1017.3
20260830180111 90 0 0.0 1.0 0.00 0.00 0.00 61 1017.5
20260830174618 89 0 0.0 9.0 0.00 0.00 0.00 64 1017.4
20260830173107 88 0 1.0 6.0 0.00 0.00 0.00 62 1017.6
20260830171609 88 215 0.0 2.0 0.00 0.00 0.00 66 1017.6
20260830170111 88 0 0.0 6.0 0.00 0.00 0.00 70 1017.6
20260830164607 88 0 0.0 1.0 0.00 0.00 0.00 72 1017.8
20260830163106 87 0 0.0 4.0 0.00 0.00 0.00 71 1018.0
20260830161622 86 0 0.0 1.0 0.00 0.00 0.00 73 1018.1
20260830160108 85 0 0.0 3.0 0.00 0.00 0.00 74 1017.9
20260830154605 84 0 0.0 4.0 0.00 0.00 0.00 74 1018.0
20260830153116 85 0 0.0 1.0 0.00 0.00 0.00 72 1018.1
20260830151606 84 0 0.0 0.0 0.00 0.00 0.00 77 1018.2
20260830150121 83 0 0.0 0.0 0.00 0.00 0.00 74 1018.1
20260830144606 80 0 0.0 0.0 0.00 0.00 0.00 88 1017.8
20260830143109 78 0 0.0 0.0 0.00 0.00 0.00 90 1017.7
20260830141606 75 0 0.0 0.0 0.00 0.00 0.00 94 1017.7
20260830140108 73 0 0.0 0.0 0.00 0.00 0.00 99 1017.5
20260830134603 71 0 0.0 0.0 0.00 0.00 0.00 99 1017.6
20260830133107 69 0 0.0 0.0 0.00 0.00 0.00 100 1017.5
20260830131607 68 0 0.0 0.0 0.00 0.00 0.00 99 1017.6
20260830130111 67 0 0.0 0.0 0.00 0.00 0.00 99 1017.5
20260830124610 66 0 0.0 0.0 0.00 0.00 0.00 99 1017.4
20260830123108 65 0 0.0 0.0 0.00 0.00 0.00 99 1017.4
20260830121605 64 0 0.0 0.0 0.00 0.00 0.00 99 1017.3